Regional Weather Roundup
Issued by NWS

Home | Current Version | Previous Version | Graphics & Text | Print | Product List | Glossary On
Versions: 1 2 3 4 5 6 7 8 9 10 11 12 13 14 15 16 17 18 19 20 21 22 23 24 25 26 27 28 29 30 31 32 33 34 35 36 37 38 39 40 41 42 43 44 45 46 47 48 49 50
000
ASUS43 KDTX 201401
RWRMI
MICHIGAN HOURLY REGIONAL WEATHER ROUNDUP
NATIONAL WEATHER SERVICE DETROIT/PONTIAC MI
1000 AM EDT SAT SEP 20 2014

NOTE: "FAIR" INDICATES FEW OR NO CLOUDS BELOW 12,000 FEET WITH NO
SIGNIFICANT WEATHER AND/OR OBSTRUCTION TO VISIBILITY.

MIZ047>049-052>055-059>063-066>070-074>076-081>083-201500-
SOUTHEAST LOWER MICHIGAN

CITY           SKY/WX    TMP DP  RH WIND       PRES   REMARKS
ADRIAN         CLOUDY    58  52  80 SW8       30.01S
ALMA           CLOUDY    64  55  75 S14       29.84F
ANN ARBOR      CLOUDY    59  52  77 SW8       29.98S
BAD AXE        CLOUDY    62  56  79 SW12G20   29.87F
CARO           CLOUDY    64  55  74 S14G20    29.87F
DETROIT CITY   PTSUNNY   66  52  60 SW12      29.99R
DETROIT        CLOUDY    61  53  75 S10       30.00S
FLINT          CLOUDY    67  54  63 SW14G22   29.90F
GROSSE ILE     MOSUNNY   64  55  72 SW8       30.00R
HILLSDALE      CLOUDY    62  56  80 S6        29.97F
HOWELL         CLOUDY    63  54  73 S9        29.92F

CITY           SKY/WX    TMP DP  RH WIND       PRES   REMARKS
JACKSON        CLOUDY    65  55  70 SW13G20   29.94F
LAMBERTVILLE   CLOUDY    64  55  72 SW3       30.02R
LANSING        CLOUDY    64  54  69 SW18G28   29.89F
LAPEER         FAIR      66  53  62 SW13      29.92F
MASON          CLOUDY    65  55  69 S3        29.91F
MONROE         PTSUNNY   64  55  72 SW7       30.00R
MT. CLEMENS    CLOUDY    65  56  74 SW13      29.95S
PONTIAC        CLOUDY    64  53  67 S8        29.95F
PORT HOPE        N/A     64  52  64 SW7       29.83F
PORT HURON     PTSUNNY   63  55  77 S10       29.96F
TRI CITIES     CLOUDY    67  54  63 SW18G25   29.85F
TROY           PTSUNNY   62  51  67 SW8G20    29.99F
SAGINAW HB     CLOUDY    64  54  68 SW12G20   29.84F
$$
MIZ043>046-050>051-056>058-064>065-071>073-077>080-201500-
SOUTHWEST LOWER MICHIGAN

CITY           SKY/WX    TMP DP  RH WIND       PRES   REMARKS
BATTLE CREEK   PTSUNNY   65  54  67 SW20G29   29.92F
BENTON HARBOR  MOSUNNY   66  57  72 S10       29.89F
BIG RAPIDS     PTSUNNY   65  60  85 SW8G20    29.81R
COLDWATER      CLOUDY    67  56  69 SW12G18   29.96F
FREMONT        FAIR      66  57  73 SW9       29.82R
HOLLAND        PTSUNNY   68  60  75 S20G30    29.84F
GRAND RAPIDS   PTSUNNY   66  57  72 SW16G23   29.86F
IONIA          FAIR      63  56  78 SW12      29.86F
KALAMAZOO      PTSUNNY   64  54  69 S14       29.92F
LUDINGTON      PTSUNNY   64  59  83 SW17G23   29.79S
MARSHALL       CLOUDY    64  55  70 SW9G23    29.93F
MOUNT PLEASANT CLOUDY    64  55  74 S10G20    29.81F
MUSKEGON       CLOUDY    68  58  70 SW18G28   29.83R
SOUTH HAVEN    MOSUNNY   67  58  72 S10G16    29.88F
$$
MIZ016>042-201500-
NORTHERN LOWER MICHIGAN

CITY           SKY/WX    TMP DP  RH WIND       PRES   REMARKS
ALPENA         CLOUDY    59  54  83 SW8       29.75R
BEAVER ISLAND  LGT RAIN  62  61  96 S16G25    29.67S
BELLAIRE       CLOUDY    64  60  86 S6        29.74R
CADILLAC       PTSUNNY   63  59  87 SW16G22   29.80R
CHARLEVOIX     LGT RAIN  63  61  96 S12G20    29.73S
FRANKFORT      LGT RAIN  65  58  77 S15G29    29.75S
GAYLORD        CLOUDY    60  57  89 SW14      29.76R
GRAYLING       CLOUDY    60  57  89 SW7       29.79R
HARBOR SPRINGS CLOUDY    63  59  88 SW12G18   29.70F
HOUGHTON LAKE  CLOUDY    61  55  81 SW6       29.80F
MANISTEE       CLOUDY    66  57  72 S8G20     29.76F
OSCODA         CLOUDY    63  52  68 SW17G23   29.79S
PELLSTON       CLOUDY    62  60  93 S12G21    29.69F
ROGERS CITY    CLOUDY    58  57  96 S9        29.73S
TRAVERSE CITY  CLOUDY    65  58  78 S10G18    29.72F
$$
MIZ007>008-015-201500-
EASTERN UPPER MICHIGAN

CITY           SKY/WX    TMP DP  RH WIND       PRES   REMARKS
KINROSS        CLOUDY    61  61 100 SW5       29.65F
MACKINAC ISLAN RAIN      62  61  97 SW10G20   29.65F
NEWBERRY       CLOUDY    61  58  90 SW13G20   29.62F
S. S. MARIE    CLOUDY    62  58  86 SW10      29.65F
$$
MIZ004>006-011>014-085-201500-
CENTRAL UPPER MICHIGAN

CITY           SKY/WX    TMP DP  RH WIND       PRES   REMARKS
MANISTIQUE     CLOUDY    60  58  96 CALM      29.62F
ESCANABA       CLOUDY    66  61  82 SW8       29.62S
MENOMINEE      CLOUDY    66  61  82 SW9       29.64S
SAWYER-GWINN   CLOUDY    63  57  82 S8        29.60F
$$
MIZ001>003-009>011-084-201500-
WESTERN UPPER MICHIGAN

CITY           SKY/WX    TMP DP  RH WIND       PRES   REMARKS
IRON MOUNTAIN  CLOUDY    68  62  81 SW13      29.62S
HOUGHTON         N/A    N/A N/A N/A MISG      29.55S
COPPER HARBOR    N/A     58  56  93 CALM      29.53S
IRONWOOD       CLOUDY    64  63  94 W14G21    29.63R
$$

ABBREVIATIONS USED IN REMARKS
   TC - TEMPERATURE IN CELSIUS
  WCI - WIND CHILL INDEX
   HX - HEAT INDEX
  VSB - VISIBILITY



USA.gov is the U.S. government's official web portal to all federal, state and local government web resources and services.